Regional Weather Roundup
Issued by NWS

Home | Current Version | Previous Version | Graphics & Text | Print | Product List | Glossary On
Versions: 1 2 3 4 5 6 7 8 9 10 11 12 13 14 15 16 17 18 19 20 21 22 23 24 25 26 27 28 29 30 31 32 33 34 35 36 37 38 39 40 41 42 43 44 45 46 47 48 49 50
000
ASUS45 KSLC 110310
RWRUT

UTAH REGIONAL WEATHER ROUNDUP
NATIONAL WEATHER SERVICE SALT LAKE CITY UT
800 PM MST WED FEB 10 2016

UTZ001>011-023>025-110400-

NORTHERN UTAH

CITY           SKY/WX    TMP DP  RH WIND       PRES   REMARKS
BRIGHAM CITY   CLOUDY    28  26  94 CALM      30.48S
HILL AFB       CLOUDY    28  26  93 N2        30.44S FOG
LOGAN          FOG       23  22  96 CALM      30.46S VSB 1/4
OGDEN          CLOUDY    28  27  96 NW5       30.45S FOG     WCI  23
PROVO AIRPORT  CLEAR     23  19  86 CALM      30.44S HAZE
SALT LAKE CITY CLOUDY    30  27  88 SW5       30.46F FOG     WCI  25
VERNAL         CLOUDY    20  15  81 W5        30.40S HAZE    WCI  13
WENDOVER       CLOUDY    30  27  86 CALM      30.46F
HEBER CITY     PTCLDY    16  12  86 CALM      30.40S
WEST JORDAN    CLOUDY    28  28 100 CALM      30.45F

$$

UTZ012>022-026-027-110400-

SOUTHERN/CENTRAL UTAH

CITY           SKY/WX    TMP DP  RH WIND       PRES   REMARKS
BLANDING       PTCLDY    31  26  82 CALM      30.43S
BRYCE CANYON   PTCLDY    19   9  65 W7        30.43R WCI  10
CEDAR CITY     PTCLDY    29  24  82 S3        30.37S
DELTA          MOCLDY    14  13  95 SW3       30.44S
HANKSVILLE     CLEAR     36  32  87 CALM      30.40S
MILFORD        MOCLDY    12  10  92 N6        30.41R FOG     WCI   3
MOAB/CYNLANDS  PTCLDY    32  27  81 W3        30.38R
PRICE          CLEAR     27  20  75 CALM      30.37S
ST GEORGE      PTCLDY    52  27  37 S5        30.29R
KANAB          CLEAR     39  32  75 NE3       30.36S

$$

REGIONAL REPORTS     COLORADO/ARIZONA

CITY           SKY/WX    TMP DP  RH WIND       PRES   REMARKS
CRAIG, CO      CLOUDY     9   6  88 CALM      30.38R
GRAND JUNCTION CLOUDY    30  26  85 NE9       30.38F WCI  22
RIFLE          CLOUDY    27  17  66 SE5       30.39R WCI  22
MONTROSE       CLOUDY    29  23  78 S5        30.41S WCI  24
CORTEZ         CLOUDY    30  24  78 NE6       30.36S WCI  24
PAGE, AZ       CLEAR     44  28  53 SE3       30.33S
GRAND CANYON   CLEAR     31  20  63 NE5       30.39S WCI  26
KINGMAN        CLEAR     47 N/A N/A E5        30.27R
FLAGSTAFF      PTCLDY    35  21  56 CALM      30.40S

$$

REGIONAL REPORTS    NEVADA/IDAHO/WYOMING

CITY           SKY/WX    TMP DP  RH WIND       PRES   REMARKS
LAS VEGAS, NV  CLEAR     65  23  20 CALM      30.19S
ELY            PTCLDY    25  19  78 S10       30.41S WCI  15
ELKO           CLOUDY    19  14  81 CALM      30.43F
POCATELLO, ID  CLOUDY    24  22  91 CALM      30.40S
BURLEY         CLEAR     29  26  89 N5        30.37R WCI  24
EVANSTON, WY   CLOUDY    32  13  45 SW9       30.40F WCI  24
ROCK SPRINGS   CLOUDY    35  20  54 W20       30.33R WCI  24

$$



USA.gov is the U.S. government's official web portal to all federal, state and local government web resources and services.